owner,sensor,date,latitude,longitude,vertical_datum,sea_water_temperature,qcFlag 
WAVCIS,ioos:station:WAVCIS:CSI16:1,2011-01-01T00:00:00Z,29.4012,-89.0355,10.0,13.692,11111222 
WAVCIS,ioos:station:WAVCIS:CSI16:1,2011-01-01T00:15:00Z,29.4012,-89.0355,10.0,13.733,11111222 
WAVCIS,ioos:station:WAVCIS:CSI16:1,2011-01-01T00:30:00Z,29.4012,-89.0355,10.0,13.705,11111222 
WAVCIS,ioos:station:WAVCIS:CSI16:1,2011-01-01T00:45:00Z,29.4012,-89.0355,10.0,13.725,11111222 
WAVCIS,ioos:station:WAVCIS:CSI16:1,2011-01-01T01:00:00Z,29.4012,-89.0355,10.0,13.75,11111222 
WAVCIS,ioos:station:WAVCIS:CSI16:1,2011-01-01T01:15:00Z,29.4012,-89.0355,10.0,13.697,11111222 
WAVCIS,ioos:station:WAVCIS:CSI16:1,2011-01-01T01:30:00Z,29.4012,-89.0355,10.0,13.717,11111222 
WAVCIS,ioos:station:WAVCIS:CSI16:1,2011-01-01T01:45:00Z,29.4012,-89.0355,10.0,13.731,11111222 
WAVCIS,ioos:station:WAVCIS:CSI16:1,2011-01-01T02:00:00Z,29.4012,-89.0355,10.0,13.734,11111222 
WAVCIS,ioos:station:WAVCIS:CSI16:1,2011-01-01T02:15:00Z,29.4012,-89.0355,10.0,13.809,11111222 
WAVCIS,ioos:station:WAVCIS:CSI16:1,2011-01-01T02:30:00Z,29.4012,-89.0355,10.0,13.895,11111222 
WAVCIS,ioos:station:WAVCIS:CSI16:1,2011-01-01T02:45:00Z,29.4012,-89.0355,10.0,13.888,11111222 
WAVCIS,ioos:station:WAVCIS:CSI16:1,2011-01-01T03:00:00Z,29.4012,-89.0355,10.0,14.047,11111222 
WAVCIS,ioos:station:WAVCIS:CSI16:1,2011-01-01T03:15:00Z,29.4012,-89.0355,10.0,14.065,11111222 
WAVCIS,ioos:station:WAVCIS:CSI16:1,2011-01-01T03:30:00Z,29.4012,-89.0355,10.0,14.22,11111222 
WAVCIS,ioos:station:WAVCIS:CSI16:1,2011-01-01T03:45:00Z,29.4012,-89.0355,10.0,14.259,11111222 
WAVCIS,ioos:station:WAVCIS:CSI16:1,2011-01-01T04:00:00Z,29.4012,-89.0355,10.0,14.301,11111222 
WAVCIS,ioos:station:WAVCIS:CSI16:1,2011-01-01T04:15:00Z,29.4012,-89.0355,10.0,14.29,11111222 
WAVCIS,ioos:station:WAVCIS:CSI16:1,2011-01-01T04:30:00Z,29.4012,-89.0355,10.0,14.275,11111222 
WAVCIS,ioos:station:WAVCIS:CSI16:1,2011-01-01T04:45:00Z,29.4012,-89.0355,10.0,14.131,11111222 
WAVCIS,ioos:station:WAVCIS:CSI16:1,2011-01-01T05:00:00Z,29.4012,-89.0355,10.0,14.17,11111222 
WAVCIS,ioos:station:WAVCIS:CSI16:1,2011-01-01T05:15:00Z,29.4012,-89.0355,10.0,14.09,11111222 
WAVCIS,ioos:station:WAVCIS:CSI16:1,2011-01-01T05:30:00Z,29.4012,-89.0355,10.0,13.935,11111222 
WAVCIS,ioos:station:WAVCIS:CSI16:1,2011-01-01T05:45:00Z,29.4012,-89.0355,10.0,13.859,11111222 
WAVCIS,ioos:station:WAVCIS:CSI16:1,2011-01-01T06:00:00Z,29.4012,-89.0355,10.0,13.712,11111222 
WAVCIS,ioos:station:WAVCIS:CSI16:1,2011-01-01T06:15:00Z,29.4012,-89.0355,10.0,13.642,11111222 
WAVCIS,ioos:station:WAVCIS:CSI16:1,2011-01-01T06:30:00Z,29.4012,-89.0355,10.0,13.438,11111222 
WAVCIS,ioos:station:WAVCIS:CSI16:1,2011-01-01T06:45:00Z,29.4012,-89.0355,10.0,13.36,11111222 
WAVCIS,ioos:station:WAVCIS:CSI16:1,2011-01-01T07:00:00Z,29.4012,-89.0355,10.0,13.19,11111222 
WAVCIS,ioos:station:WAVCIS:CSI16:1,2011-01-01T07:15:00Z,29.4012,-89.0355,10.0,13.116,11111222 
WAVCIS,ioos:station:WAVCIS:CSI16:1,2011-01-01T07:30:00Z,29.4012,-89.0355,10.0,12.973,11111222 
WAVCIS,ioos:station:WAVCIS:CSI16:1,2011-01-01T07:45:00Z,29.4012,-89.0355,10.0,12.912,11111222 
WAVCIS,ioos:station:WAVCIS:CSI16:1,2011-01-01T08:00:00Z,29.4012,-89.0355,10.0,12.78,11111222 
WAVCIS,ioos:station:WAVCIS:CSI16:1,2011-01-01T08:15:00Z,29.4012,-89.0355,10.0,12.789,11111222 
WAVCIS,ioos:station:WAVCIS:CSI16:1,2011-01-01T08:30:00Z,29.4012,-89.0355,10.0,12.758,11111222 
WAVCIS,ioos:station:WAVCIS:CSI16:1,2011-01-01T08:45:00Z,29.4012,-89.0355,10.0,12.663,11111222 
WAVCIS,ioos:station:WAVCIS:CSI16:1,2011-01-01T09:00:00Z,29.4012,-89.0355,10.0,12.646,11111222 
WAVCIS,ioos:station:WAVCIS:CSI16:1,2011-01-01T09:15:00Z,29.4012,-89.0355,10.0,12.531,11111222 
WAVCIS,ioos:station:WAVCIS:CSI16:1,2011-01-01T09:30:00Z,29.4012,-89.0355,10.0,12.56,11111222 
WAVCIS,ioos:station:WAVCIS:CSI16:1,2011-01-01T09:45:00Z,29.4012,-89.0355,10.0,12.549,11111222 
WAVCIS,ioos:station:WAVCIS:CSI16:1,2011-01-01T10:00:00Z,29.4012,-89.0355,10.0,12.622,11111222 
WAVCIS,ioos:station:WAVCIS:CSI16:1,2011-01-01T10:15:00Z,29.4012,-89.0355,10.0,12.647,11111222 
WAVCIS,ioos:station:WAVCIS:CSI16:1,2011-01-01T10:30:00Z,29.4012,-89.0355,10.0,12.694,11111222 
WAVCIS,ioos:station:WAVCIS:CSI16:1,2011-01-01T10:45:00Z,29.4012,-89.0355,10.0,12.729,11111222 
WAVCIS,ioos:station:WAVCIS:CSI16:1,2011-01-01T11:00:00Z,29.4012,-89.0355,10.0,12.742,11111222 
WAVCIS,ioos:station:WAVCIS:CSI16:1,2011-01-01T11:15:00Z,29.4012,-89.0355,10.0,12.777,11111222 
WAVCIS,ioos:station:WAVCIS:CSI16:1,2011-01-01T11:30:00Z,29.4012,-89.0355,10.0,12.813,11111222 
WAVCIS,ioos:station:WAVCIS:CSI16:1,2011-01-01T11:45:00Z,29.4012,-89.0355,10.0,12.781,11111222 
WAVCIS,ioos:station:WAVCIS:CSI16:1,2011-01-01T12:00:00Z,29.4012,-89.0355,10.0,12.861,11111222 
WAVCIS,ioos:station:WAVCIS:CSI16:1,2011-01-01T12:15:00Z,29.4012,-89.0355,10.0,12.933,11111222 
WAVCIS,ioos:station:WAVCIS:CSI16:1,2011-01-01T12:30:00Z,29.4012,-89.0355,10.0,13.062,11111222 
WAVCIS,ioos:station:WAVCIS:CSI16:1,2011-01-01T12:45:00Z,29.4012,-89.0355,10.0,13.142,11111222 
WAVCIS,ioos:station:WAVCIS:CSI16:1,2011-01-01T13:00:00Z,29.4012,-89.0355,10.0,13.096,11111222 
WAVCIS,ioos:station:WAVCIS:CSI16:1,2011-01-01T13:15:00Z,29.4012,-89.0355,10.0,13.036,11111222 
WAVCIS,ioos:station:WAVCIS:CSI16:1,2011-01-01T13:30:00Z,29.4012,-89.0355,10.0,13.088,11111222 
WAVCIS,ioos:station:WAVCIS:CSI16:1,2011-01-01T13:45:00Z,29.4012,-89.0355,10.0,12.959,11111222 
WAVCIS,ioos:station:WAVCIS:CSI16:1,2011-01-01T14:00:00Z,29.4012,-89.0355,10.0,13.011,11111222 
WAVCIS,ioos:station:WAVCIS:CSI16:1,2011-01-01T14:15:00Z,29.4012,-89.0355,10.0,12.987,11111222 
WAVCIS,ioos:station:WAVCIS:CSI16:1,2011-01-01T14:30:00Z,29.4012,-89.0355,10.0,12.991,11111222 
WAVCIS,ioos:station:WAVCIS:CSI16:1,2011-01-01T14:45:00Z,29.4012,-89.0355,10.0,12.938,11111222 
WAVCIS,ioos:station:WAVCIS:CSI16:1,2011-01-01T15:00:00Z,29.4012,-89.0355,10.0,12.934,11111222 
WAVCIS,ioos:station:WAVCIS:CSI16:1,2011-01-01T15:15:00Z,29.4012,-89.0355,10.0,12.926,11111222 
WAVCIS,ioos:station:WAVCIS:CSI16:1,2011-01-01T15:30:00Z,29.4012,-89.0355,10.0,12.929,11111222 
WAVCIS,ioos:station:WAVCIS:CSI16:1,2011-01-01T15:45:00Z,29.4012,-89.0355,10.0,12.935,11111222 
WAVCIS,ioos:station:WAVCIS:CSI16:1,2011-01-01T16:00:00Z,29.4012,-89.0355,10.0,12.972,11111222 
WAVCIS,ioos:station:WAVCIS:CSI16:1,2011-01-01T16:15:00Z,29.4012,-89.0355,10.0,13.219,11111222 
WAVCIS,ioos:station:WAVCIS:CSI16:1,2011-01-01T16:30:00Z,29.4012,-89.0355,10.0,13.44,11111222 
WAVCIS,ioos:station:WAVCIS:CSI16:1,2011-01-01T16:45:00Z,29.4012,-89.0355,10.0,13.496,11111222 
WAVCIS,ioos:station:WAVCIS:CSI16:1,2011-01-01T17:00:00Z,29.4012,-89.0355,10.0,13.556,11111222 
WAVCIS,ioos:station:WAVCIS:CSI16:1,2011-01-01T17:15:00Z,29.4012,-89.0355,10.0,13.845,11111222 
WAVCIS,ioos:station:WAVCIS:CSI16:1,2011-01-01T17:30:00Z,29.4012,-89.0355,10.0,13.86,11111222 
WAVCIS,ioos:station:WAVCIS:CSI16:1,2011-01-01T17:45:00Z,29.4012,-89.0355,10.0,13.782,11111222 
WAVCIS,ioos:station:WAVCIS:CSI16:1,2011-01-01T18:00:00Z,29.4012,-89.0355,10.0,13.952,11111222 
WAVCIS,ioos:station:WAVCIS:CSI16:1,2011-01-01T18:15:00Z,29.4012,-89.0355,10.0,13.969,11111222 
WAVCIS,ioos:station:WAVCIS:CSI16:1,2011-01-01T18:30:00Z,29.4012,-89.0355,10.0,13.981,11111222 
WAVCIS,ioos:station:WAVCIS:CSI16:1,2011-01-01T18:45:00Z,29.4012,-89.0355,10.0,13.998,11111222 
WAVCIS,ioos:station:WAVCIS:CSI16:1,2011-01-01T19:00:00Z,29.4012,-89.0355,10.0,14.014,11111222 
WAVCIS,ioos:station:WAVCIS:CSI16:1,2011-01-01T19:15:00Z,29.4012,-89.0355,10.0,14.032,11111222 
WAVCIS,ioos:station:WAVCIS:CSI16:1,2011-01-01T19:30:00Z,29.4012,-89.0355,10.0,14.109,11111222 
WAVCIS,ioos:station:WAVCIS:CSI16:1,2011-01-01T19:45:00Z,29.4012,-89.0355,10.0,14.047,11111222 
WAVCIS,ioos:station:WAVCIS:CSI16:1,2011-01-01T20:00:00Z,29.4012,-89.0355,10.0,14.083,11111222 
WAVCIS,ioos:station:WAVCIS:CSI16:1,2011-01-01T20:15:00Z,29.4012,-89.0355,10.0,14.128,11111222 
WAVCIS,ioos:station:WAVCIS:CSI16:1,2011-01-01T20:30:00Z,29.4012,-89.0355,10.0,14.175,11111222 
WAVCIS,ioos:station:WAVCIS:CSI16:1,2011-01-01T20:45:00Z,29.4012,-89.0355,10.0,14.197,11111222 
WAVCIS,ioos:station:WAVCIS:CSI16:1,2011-01-01T21:00:00Z,29.4012,-89.0355,10.0,14.375,11111222 
WAVCIS,ioos:station:WAVCIS:CSI16:1,2011-01-01T21:15:00Z,29.4012,-89.0355,10.0,14.423,11111222 
WAVCIS,ioos:station:WAVCIS:CSI16:1,2011-01-01T21:30:00Z,29.4012,-89.0355,10.0,14.588,11111222 
WAVCIS,ioos:station:WAVCIS:CSI16:1,2011-01-01T21:45:00Z,29.4012,-89.0355,10.0,14.547,11111222 
WAVCIS,ioos:station:WAVCIS:CSI16:1,2011-01-01T22:00:00Z,29.4012,-89.0355,10.0,14.5,11111222 
WAVCIS,ioos:station:WAVCIS:CSI16:1,2011-01-01T22:15:00Z,29.4012,-89.0355,10.0,14.506,11111222 
WAVCIS,ioos:station:WAVCIS:CSI16:1,2011-01-01T22:30:00Z,29.4012,-89.0355,10.0,14.583,11111222 
WAVCIS,ioos:station:WAVCIS:CSI16:1,2011-01-01T22:45:00Z,29.4012,-89.0355,10.0,14.637,11111222 
WAVCIS,ioos:station:WAVCIS:CSI16:1,2011-01-01T23:00:00Z,29.4012,-89.0355,10.0,14.654,11111222 
WAVCIS,ioos:station:WAVCIS:CSI16:1,2011-01-01T23:15:00Z,29.4012,-89.0355,10.0,14.614,11111222 
WAVCIS,ioos:station:WAVCIS:CSI16:1,2011-01-01T23:30:00Z,29.4012,-89.0355,10.0,14.621,11111222 
WAVCIS,ioos:station:WAVCIS:CSI16:1,2011-01-01T23:45:00Z,29.4012,-89.0355,10.0,14.629,11111222 
WAVCIS,ioos:station:WAVCIS:CSI16:1,2011-01-02T00:00:00Z,29.4012,-89.0355,10.0,14.652,11111222 
WAVCIS,ioos:station:WAVCIS:CSI16:1,2011-01-02T00:15:00Z,29.4012,-89.0355,10.0,14.683,11111222 
WAVCIS,ioos:station:WAVCIS:CSI16:1,2011-01-02T00:30:00Z,29.4012,-89.0355,10.0,14.697,11111222 
WAVCIS,ioos:station:WAVCIS:CSI16:1,2011-01-02T00:45:00Z,29.4012,-89.0355,10.0,14.722,11111222 
WAVCIS,ioos:station:WAVCIS:CSI16:1,2011-01-02T01:00:00Z,29.4012,-89.0355,10.0,14.732,11111222 
WAVCIS,ioos:station:WAVCIS:CSI16:1,2011-01-02T01:15:00Z,29.4012,-89.0355,10.0,14.723,11111222 
WAVCIS,ioos:station:WAVCIS:CSI16:1,2011-01-02T01:30:00Z,29.4012,-89.0355,10.0,14.712,11111222 
WAVCIS,ioos:station:WAVCIS:CSI16:1,2011-01-02T01:45:00Z,29.4012,-89.0355,10.0,14.716,11111222 
WAVCIS,ioos:station:WAVCIS:CSI16:1,2011-01-02T02:00:00Z,29.4012,-89.0355,10.0,14.724,11111222 
WAVCIS,ioos:station:WAVCIS:CSI16:1,2011-01-02T02:15:00Z,29.4012,-89.0355,10.0,14.728,11111222 
WAVCIS,ioos:station:WAVCIS:CSI16:1,2011-01-02T02:30:00Z,29.4012,-89.0355,10.0,14.735,11111222 
WAVCIS,ioos:station:WAVCIS:CSI16:1,2011-01-02T02:45:00Z,29.4012,-89.0355,10.0,14.74,11111222 
WAVCIS,ioos:station:WAVCIS:CSI16:1,2011-01-02T03:00:00Z,29.4012,-89.0355,10.0,14.735,11111222 
WAVCIS,ioos:station:WAVCIS:CSI16:1,2011-01-02T03:15:00Z,29.4012,-89.0355,10.0,14.711,11111222 
WAVCIS,ioos:station:WAVCIS:CSI16:1,2011-01-02T03:30:00Z,29.4012,-89.0355,10.0,14.681,11111222 
WAVCIS,ioos:station:WAVCIS:CSI16:1,2011-01-02T03:45:00Z,29.4012,-89.0355,10.0,14.649,11111222 
WAVCIS,ioos:station:WAVCIS:CSI16:1,2011-01-02T04:00:00Z,29.4012,-89.0355,10.0,14.616,11111222 
WAVCIS,ioos:station:WAVCIS:CSI16:1,2011-01-02T04:15:00Z,29.4012,-89.0355,10.0,14.611,11111222 
WAVCIS,ioos:station:WAVCIS:CSI16:1,2011-01-02T04:30:00Z,29.4012,-89.0355,10.0,14.581,11111222 
WAVCIS,ioos:station:WAVCIS:CSI16:1,2011-01-02T04:45:00Z,29.4012,-89.0355,10.0,14.528,11111222 
WAVCIS,ioos:station:WAVCIS:CSI16:1,2011-01-02T05:00:00Z,29.4012,-89.0355,10.0,14.474,11111222 
WAVCIS,ioos:station:WAVCIS:CSI16:1,2011-01-02T05:15:00Z,29.4012,-89.0355,10.0,14.439,11111222 
WAVCIS,ioos:station:WAVCIS:CSI16:1,2011-01-02T05:30:00Z,29.4012,-89.0355,10.0,14.39,11111222 
WAVCIS,ioos:station:WAVCIS:CSI16:1,2011-01-02T05:45:00Z,29.4012,-89.0355,10.0,14.272,11111222 
WAVCIS,ioos:station:WAVCIS:CSI16:1,2011-01-02T06:00:00Z,29.4012,-89.0355,10.0,14.202,11111222 
WAVCIS,ioos:station:WAVCIS:CSI16:1,2011-01-02T06:15:00Z,29.4012,-89.0355,10.0,14.173,11111222 
WAVCIS,ioos:station:WAVCIS:CSI16:1,2011-01-02T06:30:00Z,29.4012,-89.0355,10.0,14.187,11111222 
WAVCIS,ioos:station:WAVCIS:CSI16:1,2011-01-02T06:45:00Z,29.4012,-89.0355,10.0,14.117,11111222 
WAVCIS,ioos:station:WAVCIS:CSI16:1,2011-01-02T07:00:00Z,29.4012,-89.0355,10.0,14.111,11111222 
WAVCIS,ioos:station:WAVCIS:CSI16:1,2011-01-02T07:15:00Z,29.4012,-89.0355,10.0,14.029,11111222 
WAVCIS,ioos:station:WAVCIS:CSI16:1,2011-01-02T07:30:00Z,29.4012,-89.0355,10.0,13.973,11111222 
WAVCIS,ioos:station:WAVCIS:CSI16:1,2011-01-02T07:45:00Z,29.4012,-89.0355,10.0,13.925,11111222 
WAVCIS,ioos:station:WAVCIS:CSI16:1,2011-01-02T08:00:00Z,29.4012,-89.0355,10.0,13.906,11111222 
WAVCIS,ioos:station:WAVCIS:CSI16:1,2011-01-02T08:15:00Z,29.4012,-89.0355,10.0,13.772,11111222 
WAVCIS,ioos:station:WAVCIS:CSI16:1,2011-01-02T08:30:00Z,29.4012,-89.0355,10.0,13.75,11111222 
WAVCIS,ioos:station:WAVCIS:CSI16:1,2011-01-02T08:45:00Z,29.4012,-89.0355,10.0,13.618,11111222 
WAVCIS,ioos:station:WAVCIS:CSI16:1,2011-01-02T09:00:00Z,29.4012,-89.0355,10.0,13.569,11111222 
WAVCIS,ioos:station:WAVCIS:CSI16:1,2011-01-02T09:15:00Z,29.4012,-89.0355,10.0,13.513,11111222 
WAVCIS,ioos:station:WAVCIS:CSI16:1,2011-01-02T09:30:00Z,29.4012,-89.0355,10.0,13.552,11111222 
WAVCIS,ioos:station:WAVCIS:CSI16:1,2011-01-02T09:45:00Z,29.4012,-89.0355,10.0,13.431,11111222 
WAVCIS,ioos:station:WAVCIS:CSI16:1,2011-01-02T10:00:00Z,29.4012,-89.0355,10.0,13.413,11111222 
WAVCIS,ioos:station:WAVCIS:CSI16:1,2011-01-02T10:15:00Z,29.4012,-89.0355,10.0,13.418,11111222 
WAVCIS,ioos:station:WAVCIS:CSI16:1,2011-01-02T10:30:00Z,29.4012,-89.0355,10.0,13.312,11111222 
WAVCIS,ioos:station:WAVCIS:CSI16:1,2011-01-02T10:45:00Z,29.4012,-89.0355,10.0,13.279,11111222 
WAVCIS,ioos:station:WAVCIS:CSI16:1,2011-01-02T11:00:00Z,29.4012,-89.0355,10.0,13.226,11111222 
WAVCIS,ioos:station:WAVCIS:CSI16:1,2011-01-02T11:15:00Z,29.4012,-89.0355,10.0,13.223,11111222 
WAVCIS,ioos:station:WAVCIS:CSI16:1,2011-01-02T11:30:00Z,29.4012,-89.0355,10.0,13.205,11111222 
WAVCIS,ioos:station:WAVCIS:CSI16:1,2011-01-02T11:45:00Z,29.4012,-89.0355,10.0,13.205,11111222 
WAVCIS,ioos:station:WAVCIS:CSI16:1,2011-01-02T12:00:00Z,29.4012,-89.0355,10.0,13.194,11111222 
WAVCIS,ioos:station:WAVCIS:CSI16:1,2011-01-02T12:15:00Z,29.4012,-89.0355,10.0,13.194,11111222 
WAVCIS,ioos:station:WAVCIS:CSI16:1,2011-01-02T12:30:00Z,29.4012,-89.0355,10.0,13.144,11111222 
WAVCIS,ioos:station:WAVCIS:CSI16:1,2011-01-02T12:45:00Z,29.4012,-89.0355,10.0,13.12,11111222 
WAVCIS,ioos:station:WAVCIS:CSI16:1,2011-01-02T13:00:00Z,29.4012,-89.0355,10.0,13.144,11111222 
WAVCIS,ioos:station:WAVCIS:CSI16:1,2011-01-02T13:15:00Z,29.4012,-89.0355,10.0,13.162,11111222 
WAVCIS,ioos:station:WAVCIS:CSI16:1,2011-01-02T13:30:00Z,29.4012,-89.0355,10.0,13.173,11111222 
WAVCIS,ioos:station:WAVCIS:CSI16:1,2011-01-02T13:45:00Z,29.4012,-89.0355,10.0,13.161,11111222 
WAVCIS,ioos:station:WAVCIS:CSI16:1,2011-01-02T14:00:00Z,29.4012,-89.0355,10.0,13.164,11111222 
WAVCIS,ioos:station:WAVCIS:CSI16:1,2011-01-02T14:15:00Z,29.4012,-89.0355,10.0,13.16,11111222 
WAVCIS,ioos:station:WAVCIS:CSI16:1,2011-01-02T14:30:00Z,29.4012,-89.0355,10.0,13.139,11111222 
WAVCIS,ioos:station:WAVCIS:CSI16:1,2011-01-02T14:45:00Z,29.4012,-89.0355,10.0,13.118,11111222 
WAVCIS,ioos:station:WAVCIS:CSI16:1,2011-01-02T15:00:00Z,29.4012,-89.0355,10.0,13.069,11111222 
WAVCIS,ioos:station:WAVCIS:CSI16:1,2011-01-02T15:15:00Z,29.4012,-89.0355,10.0,13.238,11111222 
WAVCIS,ioos:station:WAVCIS:CSI16:1,2011-01-02T15:30:00Z,29.4012,-89.0355,10.0,13.305,11111222 
WAVCIS,ioos:station:WAVCIS:CSI16:1,2011-01-02T15:45:00Z,29.4012,-89.0355,10.0,13.314,11111222 
WAVCIS,ioos:station:WAVCIS:CSI16:1,2011-01-02T16:00:00Z,29.4012,-89.0355,10.0,13.493,11111222 
WAVCIS,ioos:station:WAVCIS:CSI16:1,2011-01-02T16:15:00Z,29.4012,-89.0355,10.0,13.782,11111222 
WAVCIS,ioos:station:WAVCIS:CSI16:1,2011-01-02T16:30:00Z,29.4012,-89.0355,10.0,13.798,11111222 
WAVCIS,ioos:station:WAVCIS:CSI16:1,2011-01-02T16:45:00Z,29.4012,-89.0355,10.0,13.822,11111222 
WAVCIS,ioos:station:WAVCIS:CSI16:1,2011-01-02T17:00:00Z,29.4012,-89.0355,10.0,13.865,11111222 
WAVCIS,ioos:station:WAVCIS:CSI16:1,2011-01-02T17:15:00Z,29.4012,-89.0355,10.0,13.928,11111222 
WAVCIS,ioos:station:WAVCIS:CSI16:1,2011-01-02T17:30:00Z,29.4012,-89.0355,10.0,13.942,11111222 
WAVCIS,ioos:station:WAVCIS:CSI16:1,2011-01-02T17:45:00Z,29.4012,-89.0355,10.0,13.932,11111222 
WAVCIS,ioos:station:WAVCIS:CSI16:1,2011-01-02T18:00:00Z,29.4012,-89.0355,10.0,13.9,11111222 
WAVCIS,ioos:station:WAVCIS:CSI16:1,2011-01-02T18:15:00Z,29.4012,-89.0355,10.0,13.893,11111222 
WAVCIS,ioos:station:WAVCIS:CSI16:1,2011-01-02T18:30:00Z,29.4012,-89.0355,10.0,13.874,11111222 
WAVCIS,ioos:station:WAVCIS:CSI16:1,2011-01-02T18:45:00Z,29.4012,-89.0355,10.0,13.917,11111222 
WAVCIS,ioos:station:WAVCIS:CSI16:1,2011-01-02T19:00:00Z,29.4012,-89.0355,10.0,13.913,11111222 
WAVCIS,ioos:station:WAVCIS:CSI16:1,2011-01-02T19:15:00Z,29.4012,-89.0355,10.0,13.904,11111222 
WAVCIS,ioos:station:WAVCIS:CSI16:1,2011-01-02T19:30:00Z,29.4012,-89.0355,10.0,13.921,11111222 
WAVCIS,ioos:station:WAVCIS:CSI16:1,2011-01-02T19:45:00Z,29.4012,-89.0355,10.0,13.907,11111222 
WAVCIS,ioos:station:WAVCIS:CSI16:1,2011-01-02T20:00:00Z,29.4012,-89.0355,10.0,13.888,11111222 
WAVCIS,ioos:station:WAVCIS:CSI16:1,2011-01-02T20:15:00Z,29.4012,-89.0355,10.0,13.997,11111222 
WAVCIS,ioos:station:WAVCIS:CSI16:1,2011-01-02T20:30:00Z,29.4012,-89.0355,10.0,14.077,11111222 
WAVCIS,ioos:station:WAVCIS:CSI16:1,2011-01-02T20:45:00Z,29.4012,-89.0355,10.0,14.14,11111222 
WAVCIS,ioos:station:WAVCIS:CSI16:1,2011-01-02T21:00:00Z,29.4012,-89.0355,10.0,14.416,11111222 
WAVCIS,ioos:station:WAVCIS:CSI16:1,2011-01-02T21:15:00Z,29.4012,-89.0355,10.0,14.532,11111222 
WAVCIS,ioos:station:WAVCIS:CSI16:1,2011-01-02T21:30:00Z,29.4012,-89.0355,10.0,14.547,11111222 
WAVCIS,ioos:station:WAVCIS:CSI16:1,2011-01-02T21:45:00Z,29.4012,-89.0355,10.0,14.556,11111222 
WAVCIS,ioos:station:WAVCIS:CSI16:1,2011-01-02T22:00:00Z,29.4012,-89.0355,10.0,14.59,11111222 
WAVCIS,ioos:station:WAVCIS:CSI16:1,2011-01-02T22:15:00Z,29.4012,-89.0355,10.0,14.622,11111222 
WAVCIS,ioos:station:WAVCIS:CSI16:1,2011-01-02T22:30:00Z,29.4012,-89.0355,10.0,14.616,11111222 
WAVCIS,ioos:station:WAVCIS:CSI16:1,2011-01-02T22:45:00Z,29.4012,-89.0355,10.0,14.608,11111222 
WAVCIS,ioos:station:WAVCIS:CSI16:1,2011-01-02T23:00:00Z,29.4012,-89.0355,10.0,14.606,11111222 
WAVCIS,ioos:station:WAVCIS:CSI16:1,2011-01-02T23:15:00Z,29.4012,-89.0355,10.0,14.606,11111222 
WAVCIS,ioos:station:WAVCIS:CSI16:1,2011-01-02T23:30:00Z,29.4012,-89.0355,10.0,14.649,11111222 
WAVCIS,ioos:station:WAVCIS:CSI16:1,2011-01-02T23:45:00Z,29.4012,-89.0355,10.0,14.652,11111222 
WAVCIS,ioos:station:WAVCIS:CSI16:1,2011-01-03T00:00:00Z,29.4012,-89.0355,10.0,14.653,11111222 
WAVCIS,ioos:station:WAVCIS:CSI16:1,2011-01-03T00:15:00Z,29.4012,-89.0355,10.0,14.692,11111222 
WAVCIS,ioos:station:WAVCIS:CSI16:1,2011-01-03T00:30:00Z,29.4012,-89.0355,10.0,14.675,11111222 
WAVCIS,ioos:station:WAVCIS:CSI16:1,2011-01-03T00:45:00Z,29.4012,-89.0355,10.0,14.721,11111222 
WAVCIS,ioos:station:WAVCIS:CSI16:1,2011-01-03T01:00:00Z,29.4012,-89.0355,10.0,14.683,11111222 
WAVCIS,ioos:station:WAVCIS:CSI16:1,2011-01-03T01:15:00Z,29.4012,-89.0355,10.0,14.693,11111222 
WAVCIS,ioos:station:WAVCIS:CSI16:1,2011-01-03T01:30:00Z,29.4012,-89.0355,10.0,14.705,11111222 
WAVCIS,ioos:station:WAVCIS:CSI16:1,2011-01-03T01:45:00Z,29.4012,-89.0355,10.0,14.706,11111222 
WAVCIS,ioos:station:WAVCIS:CSI16:1,2011-01-03T02:00:00Z,29.4012,-89.0355,10.0,14.72,11111222 
WAVCIS,ioos:station:WAVCIS:CSI16:1,2011-01-03T02:15:00Z,29.4012,-89.0355,10.0,14.731,11111222 
WAVCIS,ioos:station:WAVCIS:CSI16:1,2011-01-03T02:30:00Z,29.4012,-89.0355,10.0,14.738,11111222 
WAVCIS,ioos:station:WAVCIS:CSI16:1,2011-01-03T02:45:00Z,29.4012,-89.0355,10.0,14.745,11111222 
WAVCIS,ioos:station:WAVCIS:CSI16:1,2011-01-03T03:00:00Z,29.4012,-89.0355,10.0,14.767,11111222 
WAVCIS,ioos:station:WAVCIS:CSI16:1,2011-01-03T03:15:00Z,29.4012,-89.0355,10.0,14.785,11111222 
WAVCIS,ioos:station:WAVCIS:CSI16:1,2011-01-03T03:30:00Z,29.4012,-89.0355,10.0,14.79,11111222 
WAVCIS,ioos:station:WAVCIS:CSI16:1,2011-01-03T03:45:00Z,29.4012,-89.0355,10.0,14.776,11111222 
WAVCIS,ioos:station:WAVCIS:CSI16:1,2011-01-03T04:00:00Z,29.4012,-89.0355,10.0,14.788,11111222 
WAVCIS,ioos:station:WAVCIS:CSI16:1,2011-01-03T04:15:00Z,29.4012,-89.0355,10.0,14.764,11111222 
WAVCIS,ioos:station:WAVCIS:CSI16:1,2011-01-03T04:30:00Z,29.4012,-89.0355,10.0,14.764,11111222 
WAVCIS,ioos:station:WAVCIS:CSI16:1,2011-01-03T04:45:00Z,29.4012,-89.0355,10.0,14.748,11111222 
WAVCIS,ioos:station:WAVCIS:CSI16:1,2011-01-03T05:00:00Z,29.4012,-89.0355,10.0,14.786,11111222 
WAVCIS,ioos:station:WAVCIS:CSI16:1,2011-01-03T05:15:00Z,29.4012,-89.0355,10.0,14.791,11111222 
WAVCIS,ioos:station:WAVCIS:CSI16:1,2011-01-03T05:30:00Z,29.4012,-89.0355,10.0,14.772,11111222 
WAVCIS,ioos:station:WAVCIS:CSI16:1,2011-01-03T05:45:00Z,29.4012,-89.0355,10.0,14.788,11111222 
WAVCIS,ioos:station:WAVCIS:CSI16:1,2011-01-03T06:00:00Z,29.4012,-89.0355,10.0,14.791,11111222 
WAVCIS,ioos:station:WAVCIS:CSI16:1,2011-01-03T06:15:00Z,29.4012,-89.0355,10.0,14.805,11111222 
WAVCIS,ioos:station:WAVCIS:CSI16:1,2011-01-03T06:30:00Z,29.4012,-89.0355,10.0,14.755,11111222 
WAVCIS,ioos:station:WAVCIS:CSI16:1,2011-01-03T06:45:00Z,29.4012,-89.0355,10.0,14.764,11111222 
WAVCIS,ioos:station:WAVCIS:CSI16:1,2011-01-03T07:00:00Z,29.4012,-89.0355,10.0,14.756,11111222 
WAVCIS,ioos:station:WAVCIS:CSI16:1,2011-01-03T07:15:00Z,29.4012,-89.0355,10.0,14.708,11111222 
WAVCIS,ioos:station:WAVCIS:CSI16:1,2011-01-03T07:30:00Z,29.4012,-89.0355,10.0,14.691,11111222 
WAVCIS,ioos:station:WAVCIS:CSI16:1,2011-01-03T07:45:00Z,29.4012,-89.0355,10.0,14.671,11111222 
WAVCIS,ioos:station:WAVCIS:CSI16:1,2011-01-03T08:00:00Z,29.4012,-89.0355,10.0,14.586,11111222 
WAVCIS,ioos:station:WAVCIS:CSI16:1,2011-01-03T08:15:00Z,29.4012,-89.0355,10.0,14.525,11111222 
WAVCIS,ioos:station:WAVCIS:CSI16:1,2011-01-03T08:30:00Z,29.4012,-89.0355,10.0,14.442,11111222 
WAVCIS,ioos:station:WAVCIS:CSI16:1,2011-01-03T08:45:00Z,29.4012,-89.0355,10.0,14.379,11111222 
WAVCIS,ioos:station:WAVCIS:CSI16:1,2011-01-03T09:00:00Z,29.4012,-89.0355,10.0,14.313,11111222 
WAVCIS,ioos:station:WAVCIS:CSI16:1,2011-01-03T09:15:00Z,29.4012,-89.0355,10.0,14.248,11111222 
WAVCIS,ioos:station:WAVCIS:CSI16:1,2011-01-03T09:30:00Z,29.4012,-89.0355,10.0,14.149,11111222 
WAVCIS,ioos:station:WAVCIS:CSI16:1,2011-01-03T09:45:00Z,29.4012,-89.0355,10.0,14.067,11111222 
WAVCIS,ioos:station:WAVCIS:CSI16:1,2011-01-03T10:00:00Z,29.4012,-89.0355,10.0,12.873,11111222 
WAVCIS,ioos:station:WAVCIS:CSI16:1,2011-01-03T10:15:00Z,29.4012,-89.0355,10.0,12.727,11111222 
WAVCIS,ioos:station:WAVCIS:CSI16:1,2011-01-03T10:30:00Z,29.4012,-89.0355,10.0,12.777,11111222 
WAVCIS,ioos:station:WAVCIS:CSI16:1,2011-01-03T10:45:00Z,29.4012,-89.0355,10.0,12.903,11111222 
WAVCIS,ioos:station:WAVCIS:CSI16:1,2011-01-03T11:00:00Z,29.4012,-89.0355,10.0,12.897,11111222 
WAVCIS,ioos:station:WAVCIS:CSI16:1,2011-01-03T11:15:00Z,29.4012,-89.0355,10.0,12.78,11111222 
WAVCIS,ioos:station:WAVCIS:CSI16:1,2011-01-03T11:30:00Z,29.4012,-89.0355,10.0,12.759,11111222 
WAVCIS,ioos:station:WAVCIS:CSI16:1,2011-01-03T11:45:00Z,29.4012,-89.0355,10.0,12.732,11111222 
WAVCIS,ioos:station:WAVCIS:CSI16:1,2011-01-03T12:00:00Z,29.4012,-89.0355,10.0,12.71,11111222 
WAVCIS,ioos:station:WAVCIS:CSI16:1,2011-01-03T12:15:00Z,29.4012,-89.0355,10.0,12.694,11111222 
WAVCIS,ioos:station:WAVCIS:CSI16:1,2011-01-03T12:30:00Z,29.4012,-89.0355,10.0,12.652,11111222 
WAVCIS,ioos:station:WAVCIS:CSI16:1,2011-01-03T12:45:00Z,29.4012,-89.0355,10.0,12.639,11111222 
WAVCIS,ioos:station:WAVCIS:CSI16:1,2011-01-03T13:00:00Z,29.4012,-89.0355,10.0,12.625,11111222 
WAVCIS,ioos:station:WAVCIS:CSI16:1,2011-01-03T13:15:00Z,29.4012,-89.0355,10.0,12.597,11111222 
WAVCIS,ioos:station:WAVCIS:CSI16:1,2011-01-03T13:30:00Z,29.4012,-89.0355,10.0,12.582,11111222 
WAVCIS,ioos:station:WAVCIS:CSI16:1,2011-01-03T13:45:00Z,29.4012,-89.0355,10.0,12.571,11111222 
WAVCIS,ioos:station:WAVCIS:CSI16:1,2011-01-03T14:00:00Z,29.4012,-89.0355,10.0,12.55,11111222 
WAVCIS,ioos:station:WAVCIS:CSI16:1,2011-01-03T14:15:00Z,29.4012,-89.0355,10.0,12.544,11111222 
WAVCIS,ioos:station:WAVCIS:CSI16:1,2011-01-03T14:30:00Z,29.4012,-89.0355,10.0,12.613,11111222 
WAVCIS,ioos:station:WAVCIS:CSI16:1,2011-01-03T14:45:00Z,29.4012,-89.0355,10.0,12.581,11111222 